Location: Proctor
(47.8934°N, 114.3048°W)
Time: 02:47:26
(UTC+00:00)

AO-109 - Pass Details

Date: 08 July 2022
Orbit: 469 x 506 km, 60.7° (Epoch: 11 August)

Event Time Altitude Azimuth Distance (km) Brightness Sun altitude
Exits shadow 09:16:13 31° 163° (SSE) 862 ? -16.6°
Maximum altitude 09:17:11 37° 127° (SE) 757 ? -16.5°
Drops below altitude 10° 09:20:39 10° 59° (ENE) 1,671 ? -16.3°
Sets 09:22:55 0° 51° (NE) 2,563 ? -16.1°
